TimeMDT,TemperatureF,Dew PointF,Humidity,Sea Level PressureIn,VisibilityMPH,Wind Direction,Wind SpeedMPH,Gust SpeedMPH,PrecipitationIn,Events,Conditions,WindDirDegrees,DateUTC
12:53 AM,42.1,23.0,47,29.65,10.0,East,6.9,-,N/A,,Partly Cloudy,90,2012-10-23 06:53:00
1:53 AM,44.1,23.0,43,29.65,10.0,SSE,5.8,-,N/A,,Scattered Clouds,160,2012-10-23 07:53:00
2:53 AM,45.0,21.9,40,29.62,10.0,Variable,3.5,-,N/A,,Clear,0,2012-10-23 08:53:00
3:53 AM,54.0,21.0,28,29.56,10.0,South,11.5,35.7,N/A,,Clear,190,2012-10-23 09:53:00
4:53 AM,53.1,24.1,32,29.60,10.0,South,10.4,-,N/A,,Mostly Cloudy,190,2012-10-23 10:53:00
5:53 AM,53.1,25.0,34,29.60,10.0,South,12.7,-,N/A,,Overcast,180,2012-10-23 11:53:00
6:53 AM,50.0,30.9,48,29.65,10.0,SW,11.5,24.2,0.00,Rain,Light Rain,220,2012-10-23 12:53:00
7:53 AM,50.0,28.0,43,29.68,10.0,SW,10.4,21.9,0.00,,Mostly Cloudy,230,2012-10-23 13:53:00
8:53 AM,54.0,16.0,22,29.66,10.0,SW,15.0,27.6,N/A,,Partly Cloudy,230,2012-10-23 14:53:00
9:28 AM,55.4,15.8,21,29.97,10.0,SW,15.0,26.5,N/A,,Clear,230,2012-10-23 15:28:00
9:53 AM,55.0,16.0,22,29.68,10.0,WSW,18.4,32.2,N/A,,Partly Cloudy,250,2012-10-23 15:53:00
12:53 PM,60.1,9.0,13,29.67,10.0,WSW,17.3,31.1,N/A,,Scattered Clouds,240,2012-10-23 18:53:00
1:53 PM,61.0,8.1,12,29.62,10.0,SW,10.4,19.6,N/A,,Clear,230,2012-10-23 19:53:00
2:53 PM,60.1,10.0,14,29.61,10.0,SW,10.4,-,N/A,,Clear,230,2012-10-23 20:53:00
3:53 PM,60.1,12.9,16,29.57,10.0,SW,8.1,20.7,N/A,,Clear,230,2012-10-23 21:53:00
4:53 PM,57.9,14.0,18,29.58,10.0,SSW,3.5,-,N/A,,Clear,210,2012-10-23 22:53:00
5:53 PM,57.0,12.9,18,29.60,10.0,Variable,4.6,-,N/A,,Clear,0,2012-10-23 23:53:00
6:53 PM,51.1,17.1,26,29.66,10.0,ESE,3.5,-,N/A,,Clear,110,2012-10-24 00:53:00
7:53 PM,51.1,16.0,25,29.67,10.0,Calm,Calm,-,N/A,,Clear,0,2012-10-24 01:53:00
8:53 PM,50.0,18.0,28,29.66,10.0,North,5.8,-,N/A,,Clear,10,2012-10-24 02:53:00
9:53 PM,48.9,18.0,29,29.66,10.0,SSW,4.6,-,N/A,,Clear,210,2012-10-24 03:53:00
10:53 PM,46.9,18.0,32,29.65,10.0,Calm,Calm,-,N/A,,Partly Cloudy,0,2012-10-24 04:53:00
11:53 PM,52.0,18.0,26,29.62,10.0,Variable,5.8,19.6,N/A,,Mostly Cloudy,0,2012-10-24 05:53:00